Flag for US Virgin Islands Weather past 2 weeks in Christiansted, US Virgin Islands

Now
84 °F

Sunny.


Feels Like: 88 °F
Forecast: N/A
Wind: 10 mph from Southeast

Location: Christiansted / Henry E. Rohlsen Airport - Saint Croix


UV Index: N/A

Visibility: 10 mi


Pressure: 29.94 "Hg

Humidity: 63%

Dew point: 70 °F

Location of ChristianstedLocation

Historic Weather in Christiansted

°F

Christiansted temperature yesterday

Maximum temperature yesterday: 85 °F (at 10:53 AM)
Minimum temperature yesterday: 73 °F (at 5:53 AM)
Average temperature yesterday: 80 °F

Past Weeks' High & Low Weather Summary

 TemperatureHumidityPressure
High86 °F (Apr 3, 10:53 AM)93% (Apr 4, 5:53 AM)30.14 "Hg (Apr 4, 5:53 AM)
Low70 °F (Apr 12, 4:53 AM)50% (Apr 12, 11:53 AM)29.90 "Hg (Apr 15, 3:53 PM)
Average79 °F72%30.02 "Hg
* Reported Apr 1 2:53 PM — Apr 16 2:53 PM, Christiansted, Weather by CustomWeather, © 2014

Note: Actual official high and low records may vary slightly from our data, if they occured in-between our weather recording intervals... More about our weather records

Advertising

Historic Weather Conditions — Data for Previous 24 hours

 ConditionsComfort  
Time TempWeatherWind HumidityBarometerVisibility
2:53 PM
Apr 16
85 °FScattered clouds.12 mph61%29.94 "Hg10 mi
1:53 PM84 °FScattered clouds.10 mph65%29.97 "Hg10 mi
12:53 PM84 °FBroken clouds.12 mph65%29.98 "Hg10 mi
11:53 AM82 °FScattered clouds.9 mph70%29.99 "Hg10 mi
10:53 AM82 °FLight rain. Partly sunny.10 mph65%30.00 "Hg10 mi
9:53 AM79 °FRain. More clouds than sun.3 mph77%30.01 "Hg6 mi
8:53 AM82 °FBroken clouds.12 mph65%29.99 "Hg10 mi
7:53 AM81 °FSunny.9 mph67%29.98 "Hg10 mi
6:53 AM76 °FPassing clouds.5 mph82%29.97 "Hg10 mi
5:53 AM73 °FClear.5 mph84%29.96 "Hg10 mi
4:53 AM74 °FPassing clouds.5 mph85%29.94 "Hg10 mi
3:53 AM74 °FPartly cloudy.No wind85%29.94 "Hg10 mi
2:53 AM75 °FPassing clouds.6 mph82%29.93 "Hg10 mi
1:53 AM74 °FClear.5 mph85%29.95 "Hg10 mi
12:53 AM75 °FClear.5 mph82%29.96 "Hg10 mi
11:53 PM
Apr 15
75 °FClear.5 mph79%29.97 "Hg10 mi
10:53 PM75 °FClear.5 mph79%29.98 "Hg10 mi
9:53 PM75 °FClear.5 mph82%29.98 "Hg10 mi
8:53 PM76 °FClear.3 mph77%29.97 "Hg10 mi
7:53 PM78 °FPassing clouds.5 mph71%29.95 "Hg10 mi
6:53 PM80 °FPartly cloudy.9 mph69%29.93 "Hg10 mi
6:41 PM81 °FPassing clouds.8 mph70%29.94 "Hg10 mi
5:53 PM81 °FSunny.12 mph67%29.92 "Hg10 mi
4:53 PM83 °FScattered clouds.10 mph63%29.91 "Hg10 mi
Weather by CustomWeather, © 2014

See weather overview